Virginia Beach, VA

2:44 PM EST on February 20, 2017 (GMT -0500)
Norfolk International

Weather History for KORF - December, 2011

Change the Weather History Date:

Monday, December 19, 2011

  Actual Average Record
Temperature  
Mean Temperature 43 °F 43 °F  
Max Temperature 57 °F 51 °F 77 °F (1984)
Min Temperature 29 °F 35 °F 12 °F (1884)
Degree Days  
Heating Degree Days 22 22  
Month to date heating degree days 282 372  
Since 1 July heating degree days 687 902  
Cooling Degree Days 0 0  
Month to date cooling degree days 2 0  
Year to date cooling degree days 2117 1628  
Moisture  
Dew Point 28 °F    
Average Humidity 57    
Maximum Humidity 78    
Minimum Humidity 35    
Precipitation  
Precipitation 0.00 in 0.10 in 1.17 in (1996)
Month to date precipitation 0.58 2.01  
Year to date precipitation 50.12 45.28  
Snow  
Snow 0.00 in 0.00 in 1.80 in (1919)
Month to date snowfall 0.0 0.4  
Since 1 July snowfall 0.0 0.4  
Snow Depth 0.00 in    
Sea Level Pressure  
Sea Level Pressure 30.26 in    
Wind  
Wind Speed 11 mph (SSW)    
Max Wind Speed 21 mph    
Max Gust Speed 25 mph    
Visibility 10 miles    
Events      
T = Trace of Precipitation, MM = Missing Value Source: NWS Daily Summary

Daily Weather History Graph

Daily Weather History Graph

Search for Another Location

Airport or City:

Trip Planner

Search our weather history database for the weather conditions in past years. The results will help you decide how hot, cold, wet, or windy it might be!

Date:

Astronomy

Dec. 19, 2011 Rise Set
Actual Time 7:12 AM EST 4:50 PM EST
Civil Twilight 6:43 AM EST 5:19 PM EST
Nautical Twilight 6:11 AM EST 5:52 PM EST
Astronomical Twilight 5:39 AM EST 6:24 PM EST
Moon 1:25 AM EST (12/19) 12:43 PM EST (12/19)
Length of Visible Light 10h 36m
Length of Day
9h 38m
Waning Crescent, 31% of the Moon is Illuminated
Dec 19
Waning Crescent
Dec 24
New
Jan 1
First Quarter
Jan 9
Full
Jan 16
Last Quarter

Hourly Weather History & Observations

Time (EST) Temp. Windchill Dew Point Humidity Pressure Visibility Wind Dir Wind Speed Gust Speed Precip Events Conditions
12:51 AM 32.0 °F 27.5 °F 27.0 °F 82% 30.34 in 10.0 mi SW 4.6 mph - N/A   Clear
1:51 AM 32.0 °F 28.7 °F 27.0 °F 82% 30.33 in 9.0 mi SSW 3.5 mph - N/A   Clear
2:51 AM 32.0 °F - 27.0 °F 82% 30.33 in 9.0 mi Calm Calm - N/A   Clear
3:51 AM 30.0 °F 24.1 °F 25.0 °F 82% 30.33 in 9.0 mi SW 5.8 mph - N/A   Clear
4:51 AM 30.0 °F 26.5 °F 25.0 °F 82% 30.33 in 10.0 mi SSW 3.5 mph - N/A   Clear
5:51 AM 30.0 °F 24.1 °F 25.0 °F 82% 30.34 in 9.0 mi SSW 5.8 mph - N/A   Clear
6:51 AM 30.0 °F 24.1 °F 25.0 °F 82% 30.34 in 10.0 mi SSW 5.8 mph - N/A   Clear
7:51 AM 34.0 °F 29.8 °F 26.1 °F 73% 30.35 in 10.0 mi South 4.6 mph - N/A   Partly Cloudy
8:51 AM 39.9 °F 33.4 °F 30.9 °F 70% 30.35 in 10.0 mi SSW 10.4 mph - N/A   Partly Cloudy
9:51 AM 45.0 °F 37.9 °F 28.9 °F 53% 30.34 in 10.0 mi SSW 16.1 mph 23.0 mph N/A   Partly Cloudy
10:51 AM 48.9 °F - 28.9 °F 46% 30.32 in 10.0 mi SSW 15.0 mph - N/A   Partly Cloudy
11:51 AM 52.0 °F - 28.9 °F 41% 30.29 in 10.0 mi SW 17.3 mph - N/A   Partly Cloudy
12:51 PM 54.0 °F - 28.0 °F 37% 30.25 in 10.0 mi SSW 18.4 mph - N/A   Clear
1:51 PM 55.9 °F - 28.9 °F 36% 30.21 in 10.0 mi SSW 19.6 mph 24.2 mph N/A   Clear
2:51 PM 55.9 °F - 28.9 °F 36% 30.18 in 10.0 mi SSW 17.3 mph - N/A   Clear
3:51 PM 55.9 °F - 28.0 °F 34% 30.18 in 10.0 mi SW 16.1 mph - N/A   Clear
4:51 PM 53.1 °F - 28.9 °F 40% 30.17 in 10.0 mi SSW 17.3 mph - N/A   Clear
5:51 PM 48.9 °F - 30.0 °F 48% 30.19 in 10.0 mi SSW 9.2 mph - N/A   Partly Cloudy
6:51 PM 48.0 °F - 30.9 °F 52% 30.19 in 10.0 mi South 10.4 mph - N/A   Clear
7:51 PM 48.0 °F - 30.9 °F 52% 30.19 in 10.0 mi SSW 10.4 mph - N/A   Clear
8:51 PM 50.0 °F - 30.0 °F 46% 30.18 in 10.0 mi SW 12.7 mph - N/A   Mostly Cloudy
9:51 PM 52.0 °F - 28.0 °F 40% 30.16 in 10.0 mi SW 13.8 mph - N/A   Partly Cloudy
10:51 PM 51.1 °F - 28.0 °F 41% 30.15 in 10.0 mi SW 12.7 mph - N/A   Clear
11:51 PM 46.9 °F - 30.0 °F 52% 30.15 in 10.0 mi SW 11.5 mph - N/A   Partly Cloudy